When you browse on this site, cookies collect data to enhance your experience and personalize the content and advertising you see.
Visit our Privacy Policy to learn more. By continuing to use the site, you agree to this use of cookies and data.
  • In Austria
  • List of Countries
  • For 7 days
  • Water Temperature
  • Satellite Maps
  • Weather Map
  • News
  • Weather Widgets
  • user-avatar
    Login

    Hourly Weather Kaprun

    Today, 18 November, Sunday

    Time Temperature Precipitation Wind Pressure Humidity
    00:00 -8°C° 0 mm 1 mps 597 mmHg 72%
    01:00 -8°C° 0 mm 1 mps 597 mmHg 70%
    02:00 -8°C° 0 mm 1 mps 597 mmHg 68%
    03:00 -8°C° 0 mm 1 mps 596 mmHg 67%
    04:00 -8°C° 0 mm 1 mps 596 mmHg 65%
    05:00 -8°C° 0 mm 1 mps 596 mmHg 64%
    06:00 -8°C° 0 mm 1 mps 596 mmHg 64%
    07:00 -8°C° 0 mm 1 mps 595 mmHg 59%
    08:00 -7°C° 0 mm 1 mps 596 mmHg 56%
    09:00 -4°C° 0 mm 1 mps 596 mmHg 53%
    10:00 -2°C° 0 mm 1 mps 597 mmHg 49%
    11:00 -2°C° 0 mm 1 mps 597 mmHg 48%
    12:00 -1°C° 0 mm 1 mps 597 mmHg 48%
    13:00 -1°C° 0 mm 1 mps 596 mmHg 48%
    14:00 -2°C° 0 mm 1 mps 595 mmHg 54%
    15:00 -3°C° 0 mm 1 mps 594 mmHg 60%
    16:00 -4°C° 0 mm 1 mps 593 mmHg 66%
    17:00 -6°C° 0 mm 1 mps 593 mmHg 72%
    18:00 -7°C° 0 mm 1 mps 592 mmHg 78%
    19:00 -8°C° 0 mm 1 mps 591 mmHg 85%
    20:00 -8°C° 0 mm 1 mps 591 mmHg 85%
    21:00 -8°C° 0 mm 1 mps 591 mmHg 85%
    22:00 -8°C° 0 mm 1 mps 591 mmHg 85%
    23:00 -8°C° 0.1 mm 1 mps 591 mmHg 86%

    Tomorrow, 19 November, Monday

    Time Temperature Precipitation Wind Pressure Humidity
    00:00 -8°C° 0.1 mm 1 mps 591 mmHg 86%
    01:00 -8°C° 0.1 mm 1 mps 590 mmHg 87%
    02:00 -8°C° 0.2 mm 1 mps 590 mmHg 88%
    03:00 -8°C° 0.2 mm 0 mps 590 mmHg 88%
    04:00 -8°C° 0.2 mm 0 mps 589 mmHg 89%
    05:00 -8°C° 0.2 mm 1 mps 589 mmHg 89%
    06:00 -9°C° 0.2 mm 1 mps 589 mmHg 89%
    07:00 -9°C° 0.2 mm 1 mps 589 mmHg 90%
    08:00 -8°C° 0.1 mm 1 mps 589 mmHg 85%
    09:00 -7°C° 0.1 mm 1 mps 589 mmHg 80%
    10:00 -8°C° 0.1 mm 2 mps 589 mmHg 75%
    11:00 -7°C° 0.1 mm 2 mps 589 mmHg 71%
    12:00 -7°C° 0.1 mm 2 mps 589 mmHg 67%
    13:00 -6°C° 0.1 mm 2 mps 589 mmHg 63%
    14:00 -7°C° 0 mm 2 mps 589 mmHg 66%
    15:00 -7°C° 0 mm 2 mps 588 mmHg 70%
    16:00 -8°C° 0 mm 2 mps 588 mmHg 73%
    17:00 -9°C° 0 mm 2 mps 587 mmHg 77%
    18:00 -10°C° 0 mm 2 mps 587 mmHg 80%
    19:00 -12°C° 0 mm 2 mps 587 mmHg 83%
    20:00 -10°C° 0 mm 2 mps 587 mmHg 81%
    21:00 -10°C° 0 mm 2 mps 587 mmHg 79%
    22:00 -10°C° 0 mm 2 mps 587 mmHg 78%
    23:00 -10°C° 0.1 mm 2 mps 586 mmHg 77%

    Day after tomorrow, 20 November, Tuesday

    Time Temperature Precipitation Wind Pressure Humidity
    00:00 -9°C° 0.1 mm 2 mps 586 mmHg 77%
    01:00 -9°C° 0.1 mm 2 mps 586 mmHg 77%
    02:00 -9°C° 0.3 mm 2 mps 586 mmHg 79%
    03:00 -9°C° 0.3 mm 2 mps 586 mmHg 81%
    04:00 -7°C° 0.3 mm 1 mps 585 mmHg 83%
    05:00 -7°C° 0.3 mm 1 mps 585 mmHg 84%
    06:00 -7°C° 0.3 mm 1 mps 585 mmHg 85%
    07:00 -7°C° 0.3 mm 1 mps 585 mmHg 85%
    08:00 -7°C° 0.1 mm 2 mps 585 mmHg 81%
    09:00 -6°C° 0.1 mm 2 mps 586 mmHg 77%
    10:00 -5°C° 0.1 mm 2 mps 587 mmHg 72%
    11:00 -4°C° 0 mm 2 mps 587 mmHg 71%
    12:00 -3°C° 0 mm 2 mps 587 mmHg 69%
    13:00 -2°C° 0 mm 2 mps 588 mmHg 67%
    14:00 -3°C° 0 mm 2 mps 587 mmHg 73%
    15:00 -4°C° 0 mm 2 mps 587 mmHg 78%
    16:00 -3°C° 0 mm 1 mps 587 mmHg 83%
    17:00 -6°C° 0 mm 2 mps 587 mmHg 84%
    18:00 -7°C° 0 mm 2 mps 587 mmHg 84%
    19:00 -8°C° 0 mm 2 mps 587 mmHg 85%
    20:00 -8°C° 0 mm 2 mps 588 mmHg 83%
    21:00 -8°C° 0 mm 2 mps 588 mmHg 80%
    22:00 -8°C° 0 mm 2 mps 588 mmHg 78%
    23:00 -8°C° 0 mm 2 mps 588 mmHg 75%

    21 November, Wednesday

    Time Temperature Precipitation Wind Pressure Humidity
    00:00 -8°C° 0 mm 2 mps 589 mmHg 72%
    01:00 -7°C° 0 mm 1 mps 589 mmHg 69%
    02:00 -7°C° 0 mm 1 mps 589 mmHg 67%
    03:00 -7°C° 0 mm 1 mps 589 mmHg 64%
    04:00 -6°C° 0 mm 1 mps 589 mmHg 61%
    05:00 -6°C° 0 mm 1 mps 589 mmHg 60%
    06:00 -6°C° 0 mm 1 mps 589 mmHg 58%
    07:00 -6°C° 0 mm 1 mps 589 mmHg 57%
    08:00 -5°C° 0 mm 2 mps 590 mmHg 55%
    09:00 -3°C° 0 mm 2 mps 591 mmHg 54%
    10:00 -2°C° 0 mm 2 mps 592 mmHg 52%
    11:00 -1°C° 0 mm 2 mps 592 mmHg 53%
    12:00 +1°C° 0 mm 2 mps 592 mmHg 53%
    13:00 +2°C° 0 mm 2 mps 593 mmHg 53%
    14:00 +1°C° 0 mm 2 mps 592 mmHg 60%
    15:00 -2°C° 0 mm 2 mps 591 mmHg 67%
    16:00 -4°C° 0 mm 2 mps 591 mmHg 74%
    17:00 -5°C° 0 mm 2 mps 591 mmHg 76%
    18:00 -6°C° 0 mm 2 mps 591 mmHg 77%
    19:00 -6°C° 0 mm 2 mps 591 mmHg 78%
    20:00 -6°C° 0 mm 1 mps 591 mmHg 77%
    21:00 -6°C° 0 mm 1 mps 592 mmHg 77%
    22:00 -6°C° 0 mm 1 mps 592 mmHg 76%
    23:00 -6°C° 0 mm 1 mps 592 mmHg 75%

    22 November, Thursday

    Time Temperature Precipitation Wind Pressure Humidity
    00:00 -6°C° 0 mm 1 mps 592 mmHg 74%
    01:00 -6°C° 0 mm 1 mps 593 mmHg 74%
    02:00 -6°C° 0 mm 1 mps 593 mmHg 73%
    03:00 -6°C° 0 mm 1 mps 593 mmHg 72%
    04:00 -6°C° 0 mm 1 mps 593 mmHg 72%
    05:00 -6°C° 0 mm 1 mps 593 mmHg 72%
    06:00 -6°C° 0 mm 1 mps 593 mmHg 72%
    07:00 -6°C° 0 mm 1 mps 594 mmHg 72%
    08:00 -5°C° 0 mm 0 mps 595 mmHg 68%
    09:00 -3°C° 0 mm 0 mps 596 mmHg 63%
    10:00 -1°C° 0 mm 0 mps 597 mmHg 59%
    11:00 0°C° 0 mm 0 mps 597 mmHg 59%
    12:00 +1°C° 0 mm 1 mps 597 mmHg 58%
    13:00 +2°C° 0 mm 1 mps 597 mmHg 58%
    14:00 +1°C° 0 mm 1 mps 597 mmHg 66%
    15:00 -2°C° 0 mm 0 mps 596 mmHg 73%
    16:00 -3°C° 0 mm 0 mps 596 mmHg 81%
    17:00 -4°C° 0 mm 0 mps 596 mmHg 82%
    18:00 -4°C° 0 mm 1 mps 596 mmHg 84%
    19:00 -6°C° 0 mm 1 mps 596 mmHg 85%
    20:00 -6°C° 0 mm 1 mps 596 mmHg 84%
    21:00 -6°C° 0 mm 1 mps 597 mmHg 83%
    22:00 -6°C° 0 mm 1 mps 597 mmHg 83%
    23:00 -6°C° 0 mm 1 mps 597 mmHg 82%

    23 November, Friday

    Time Temperature Precipitation Wind Pressure Humidity
    00:00 -6°C° 0 mm 1 mps 597 mmHg 82%
    01:00 -6°C° 0 mm 1 mps 597 mmHg 82%
    02:00 -6°C° 0 mm 1 mps 597 mmHg 81%
    03:00 -6°C° 0 mm 1 mps 597 mmHg 81%
    04:00 -6°C° 0 mm 1 mps 597 mmHg 80%
    05:00 -6°C° 0 mm 1 mps 597 mmHg 79%
    06:00 -6°C° 0 mm 1 mps 597 mmHg 77%
    07:00 -6°C° 0 mm 1 mps 597 mmHg 76%
    08:00 -4°C° 0 mm 1 mps 598 mmHg 71%
    09:00 -2°C° 0 mm 1 mps 599 mmHg 66%
    10:00 0°C° 0 mm 1 mps 600 mmHg 61%
    11:00 +1°C° 0 mm 1 mps 600 mmHg 59%
    12:00 +1°C° 0 mm 1 mps 600 mmHg 56%
    13:00 +2°C° 0 mm 1 mps 600 mmHg 54%
    14:00 +1°C° 0 mm 1 mps 599 mmHg 60%
    15:00 0°C° 0 mm 1 mps 598 mmHg 66%
    16:00 -2°C° 0 mm 1 mps 598 mmHg 73%
    17:00 -2°C° 0 mm 1 mps 597 mmHg 74%
    18:00 -3°C° 0 mm 1 mps 597 mmHg 75%
    19:00 -4°C° 0 mm 1 mps 597 mmHg 76%
    20:00 -5°C° 0 mm 2 mps 597 mmHg 76%
    21:00 -5°C° 0 mm 2 mps 597 mmHg 77%
    22:00 -5°C° 0 mm 2 mps 597 mmHg 77%
    23:00 -5°C° 0.2 mm 2 mps 597 mmHg 79%
    Show more